Location: Observatory
(52.1446°N, 0.4624°W)
Time: 00:45:28
(UTC+01:00)

ISS - Visible Passes

Search period start: 23 October 2019 00:00
Search period end: 01 November 2019 23:00
Orbit: 411 x 421 km, 51.6° (Epoch: 23 October)

Date Brightness Start Highest point End Pass type
(mag) Time Alt. Az. Time Alt. Az. Time Alt. Az.
25 Oct -0.9 06:36:32 10° S 06:38:37 15° SE 06:40:42 10° ESE visible
26 Oct -0.6 05:49:39 10° SSE 05:50:17 10° SE 05:50:55 10° SE visible
27 Oct -1.9 05:34:54 10° SSW 05:37:51 29° SSE 05:40:49 10° E visible
28 Oct -1.5 04:47:43 15° S 04:49:25 21° SE 04:52:01 10° E visible
29 Oct -1.0 04:01:27 14° SE 04:01:27 14° SE 04:02:58 10° ESE visible
29 Oct -3.0 05:34:21 13° SW 05:37:11 49° SSE 05:40:28 10° E visible
30 Oct -2.7 04:47:58 33° S 04:48:39 37° SSE 04:51:48 10° E visible
31 Oct -1.3 04:01:29 21° ESE 04:01:29 21° ESE 04:03:04 10° E visible
31 Oct -3.6 05:34:23 20° WSW 05:36:35 72° S 05:39:57 10° E visible
01 Nov -3.5 04:47:50 59° S 04:47:58 60° SSE 04:51:19 10° E visible
01 Nov -3.7 06:21:16 10° W 06:24:39 83° S 06:28:01 10° E visible
